Temp
-10 -10 -11 -11 -10 -10 -10 -10 -10 -10 -10 -10 -10 -10 -10 -10 -10 -10 -9 -10 -10 -10 -10 -10 -10 -10 -10 -10 -10 -10 -10 -10 -10 -10 -10 -10 -10 -10 -10 -10 -10 -10 -10
-10 -10 -11 -10 -10 -10 -10 -10 -10 -10 -10 -10 -10 -10 -10 -10 -10 -10 -10 -10 -10 -10 -10 -10 -10 -10 -10 -10 -10 -10 -10 -10 -10 -10 -10 -11 -10 -10 -10 -10 -10 -10 -10
-10 -10 -10 -10 -10 -10 -10 -10 -10 -10 -10 -10 -10 -10 -10 -10 -10 -10 -10 -10 -10 -10 -10 -10 -10 -10 -10 -10 -10 -10 -10 -10 -10 -10 -10 -11 -10 -11 -10 -10 -10 -10 -10
-10 -9 -10 -10 -10 -10 -10 -10 -10 -10 -10 -10 -10 -10 -10 -10 -10 -10 -10 -10 -10 -10 -10 -10 -10 -10 -10 -10 -10 -10 -10 -10 -10 -10 -11 -10 -11 -11 -11 -11 -11 -11 -11
-9 -9 -10 -10 -10 -10 -10 -10 -10 -10 -10 -10 -10 -10 -10 -10 -10 -10 -10 -10 -10 -10 -10 -10 -10 -10 -10 -11 -11 -11 -10 -10 -11 -11 -11 -11 -11 -11 -11 -11 -11 -11 -11
-10 -10 -10 -10 -10 -10 -10 -10 -10 -10 -10 -10 -10 -10 -10 -10 -10 -10 -10 -10 -11 -11 -11 -11 -11 -11 -11 -11 -11 -11 -11 -11 -11 -12 -11 -11 -11 -11 -12 -11 -11 -11 -11
-10 -10 -10 -10 -10 -10 -10 -10 -10 -10 -10 -10 -10 -11 -11 -11 -11 -11 -11 -11 -11 -11 -11 -11 -11 -11 -11 -11 -11 -11 -11 -11 -11 -11 -12 -12 -11 -11 -12 -12 -12 -12 -12
-10 -10 -10 -10 -10 -10 -10 -10 -10 -10 -10 -11 -11 -11 -11 -11 -11 -11 -11 -11 -11 -11 -11 -11 -11 -11 -11 -11 -11 -11 -11 -11 -11 -12 -12 -12 -12 -12 -12 -12 -12 -12 -12
-10 -10 -10 -10 -10 -10 -10 -10 -10 -10 -10 -10 -11 -11 -11 -11 -11 -11 -11 -11 -11 -11 -11 -11 -11 -11 -11 -11 -11 -11 -11 -11 -12 -12 -12 -12 -12 -13 -13 -13 -13 -13 -13
-10 -10 -10 -10 -10 -10 -11 -11 -10 -10 -10 -10 -11 -11 -11 -11 -11 -11 -11 -11 -12 -11 -11 -11 -11 -11 -12 -11 -12 -12 -12 -12 -12 -12 -13 -12 -13 -13 -13 -13 -13 -13 -13
-10 -10 -10 -10 -10 -11 -11 -11 -11 -11 -11 -11 -11 -11 -11 -11 -11 -11 -12 -12 -12 -12 -12 -11 -11 -12 -12 -12 -12 -12 -12 -13 -12 -12 -13 -13 -13 -13 -13 -13 -13 -13 -13
-11 -11 -11 -11 -11 -11 -11 -11 -11 -11 -11 -11 -11 -11 -11 -11 -12 -12 -12 -12 -12 -12 -12 -12 -12 -12 -12 -12 -12 -12 -12 -12 -13 -13 -13 -13 -13 -13 -13 -13 -13 -13 -14
-12 -12 -11 -11 -11 -11 -11 -11 -11 -11 -11 -11 -11 -11 -11 -12 -12 -12 -12 -12 -12 -12 -12 -12 -12 -12 -13 -13 -13 -13 -13 -12 -13 -13 -13 -13 -13 -13 -13 -13 -13 -14 -14
-12 -12 -12 -12 -12 -12 -12 -12 -12 -12 -12 -12 -12 -12 -12 -12 -12 -12 -12 -12 -12 -12 -12 -13 -12 -13 -13 -13 -13 -13 -13 -13 -12 -14 -13 -13 -13 -14 -14 -13 -13 -14 -14
-12 -12 -12 -12 -12 -12 -12 -12 -12 -12 -12 -12 -12 -12 -12 -12 -12 -12 -12 -12 -12 -12 -12 -13 -13 -13 -13 -13 -13 -12 -13 -13 -13 -13 -13 -14 -14 -14 -14 -14 -14 -14 -14
-12 -13 -13 -13 -12 -12 -13 -13 -12 -12 -13 -12 -12 -12 -13 -13 -13 -13 -13 -13 -13 -13 -13 -13 -13 -13 -12 -12 -13 -13 -13 -13 -13 -13 -13 -14 -14 -14 -14 -14 -14 -15 -15
-12 -13 -13 -13 -13 -13 -13 -13 -13 -13 -13 -13 -13 -13 -13 -13 -13 -13 -13 -13 -13 -13 -13 -13 -13 -13 -12 -12 -12 -13 -13 -13 -13 -14 -14 -14 -14 -14 -15 -15 -15 -15 -15
-12 -13 -13 -13 -13 -13 -13 -13 -13 -13 -13 -13 -13 -13 -13 -13 -13 -13 -13 -13 -13 -13 -13 -13 -13 -12 -12 -12 -12 -12 -13 -13 -13 -13 -14 -13 -14 -14 -14 -15 -15 -15 -15
-12 -12 -13 -13 -13 -13 -13 -13 -13 -13 -13 -13 -13 -13 -13 -13 -13 -13 -13 -13 -13 -13 -14 -13 -12 -12 -12 -12 -12 -13 -13 -13 -13 -13 -14 -14 -14 -14 -14 -14 -14 -14 -15
-12 -12 -13 -13 -13 -13 -13 -13 -13 -13 -13 -13 -13 -13 -13 -14 -13 -13 -13 -13 -14 -14 -14 -13 -12 -12 -13 -13 -13 -13 -13 -13 -13 -13 -14 -14 -14 -14 -14 -14 -15 -15 -15
-12 -13 -13 -13 -13 -13 -13 -13 -13 -13 -13 -13 -13 -13 -13 -14 -14 -14 -14 -14 -14 -14 -14 -12 -12 -12 -12 -13 -13 -13 -13 -13 -13 -13 -14 -14 -14 -15 -15 -15 -15 -15 -15
-13 -13 -13 -13 -13 -13 -13 -13 -13 -13 -13 -14 -14 -14 -14 -14 -14 -14 -14 -14 -14 -14 -13 -12 -12 -12 -12 -13 -13 -13 -14 -13 -14 -13 -14 -14 -14 -14 -15 -15 -15 -15 -15
-13 -13 -14 -14 -14 -14 -14 -14 -13 -14 -14 -14 -14 -14 -14 -14 -14 -14 -14 -14 -14 -13 -13 -12 -12 -13 -13 -13 -13 -13 -13 -14 -14 -14 -14 -14 -14 -15 -15 -15 -15 -15 -15
-13 -14 -14 -15 -15 -15 -14 -14 -14 -14 -14 -14 -14 -14 -15 -14 -14 -14 -14 -14 -14 -13 -13 -12 -12 -13 -13 -13 -13 -13 -14 -14 -14 -15 -15 -15 -15 -15 -15 -15 -15 -15 -15
-13 -14 -15 -15 -15 -15 -15 -15 -14 -15 -15 -14 -14 -15 -15 -15 -15 -14 -15 -15 -14 -13 -12 -12 -13 -13 -13 -13 -14 -14 -14 -14 -14 -14 -15 -15 -15 -15 -15 -15 -15 -15 -15
-14 -15 -15 -15 -15 -15 -16 -15 -15 -15 -15 -15 -15 -16 -15 -15 -15 -15 -15 -14 -14 -13 -12 -13 -13 -13 -13 -14 -14 -14 -14 -14 -14 -15 -15 -15 -15 -15 -16 -15 -16 -16 -16
Height
5857 5855 5855 5855 5855 5856 5857 5856 5856 5856 5856 5856 5855 5855 5855 5855 5854 5854 5854 5854 5853 5853 5853 5852 5851 5850 5849 5848 5847 5846 5846 5845 5844 5843 5842 5839 5838 5837 5836 5834 5833 5832 5831
5857 5857 5855 5855 5856 5857 5857 5858 5858 5858 5858 5857 5857 5856 5856 5856 5856 5855 5855 5855 5855 5854 5853 5852 5852 5851 5850 5849 5847 5846 5846 5845 5844 5844 5841 5835 5836 5837 5836 5834 5833 5831 5830
5858 5857 5857 5857 5857 5858 5857 5859 5859 5859 5859 5858 5857 5857 5857 5857 5856 5856 5856 5856 5855 5854 5854 5853 5852 5851 5850 5849 5847 5846 5846 5844 5844 5844 5841 5829 5833 5836 5834 5833 5831 5830 5828
5858 5857 5858 5857 5857 5858 5858 5859 5860 5860 5859 5859 5858 5858 5858 5857 5856 5856 5856 5856 5856 5855 5854 5853 5852 5851 5850 5848 5846 5845 5845 5843 5843 5843 5840 5837 5834 5833 5832 5830 5830 5828 5826
5857 5857 5858 5859 5859 5859 5859 5860 5861 5860 5859 5859 5858 5858 5858 5857 5857 5856 5856 5856 5855 5854 5854 5853 5852 5850 5849 5847 5845 5843 5842 5842 5842 5838 5837 5835 5833 5830 5829 5827 5826 5824 5822
5857 5857 5858 5859 5860 5860 5861 5861 5861 5861 5859 5858 5858 5858 5858 5857 5857 5856 5856 5856 5855 5854 5853 5852 5851 5849 5847 5845 5843 5840 5839 5838 5841 5834 5832 5830 5829 5827 5825 5823 5822 5821 5818
5857 5858 5859 5859 5860 5861 5861 5861 5861 5861 5860 5858 5858 5857 5857 5856 5856 5856 5855 5855 5854 5854 5852 5851 5849 5848 5846 5843 5841 5838 5836 5834 5833 5833 5828 5826 5824 5822 5820 5818 5817 5815 5813
5859 5859 5859 5859 5860 5860 5861 5861 5861 5860 5860 5859 5857 5857 5857 5856 5856 5855 5855 5854 5853 5852 5851 5849 5847 5845 5843 5840 5838 5836 5833 5831 5827 5826 5824 5821 5819 5816 5814 5812 5810 5809 5807
5859 5859 5859 5859 5860 5860 5860 5861 5860 5859 5859 5858 5857 5857 5856 5856 5855 5854 5853 5853 5852 5851 5849 5847 5845 5843 5840 5837 5835 5832 5829 5828 5823 5820 5818 5816 5812 5810 5808 5806 5804 5802 5800
5858 5858 5858 5858 5859 5859 5859 5859 5859 5858 5858 5857 5856 5856 5856 5855 5854 5853 5852 5851 5851 5849 5847 5845 5842 5839 5837 5834 5831 5827 5824 5821 5819 5816 5813 5810 5808 5804 5802 5800 5798 5795 5794
5856 5857 5857 5857 5857 5857 5857 5857 5858 5857 5856 5856 5856 5855 5855 5854 5853 5852 5851 5850 5849 5847 5845 5842 5839 5837 5833 5830 5826 5823 5820 5817 5813 5811 5808 5805 5802 5800 5796 5794 5792 5790 5787
5855 5854 5854 5855 5856 5855 5855 5855 5856 5856 5855 5855 5854 5854 5853 5853 5852 5851 5849 5848 5847 5845 5843 5840 5837 5834 5831 5827 5823 5819 5815 5815 5809 5806 5803 5800 5797 5794 5791 5788 5786 5783 5781
5853 5854 5853 5853 5853 5853 5853 5853 5854 5854 5854 5853 5853 5852 5851 5850 5849 5848 5847 5846 5844 5842 5839 5836 5833 5830 5827 5822 5819 5815 5811 5807 5809 5801 5799 5795 5792 5789 5786 5783 5781 5778 5776
5851 5851 5852 5852 5851 5851 5852 5852 5852 5852 5852 5852 5851 5850 5849 5848 5847 5846 5845 5843 5841 5839 5836 5834 5830 5826 5821 5818 5816 5812 5808 5803 5801 5800 5795 5791 5788 5785 5782 5780 5778 5776 5773
5848 5848 5849 5849 5849 5849 5850 5850 5849 5849 5849 5849 5849 5848 5847 5846 5845 5843 5842 5840 5838 5835 5832 5830 5826 5822 5819 5816 5812 5808 5805 5802 5797 5796 5793 5789 5786 5783 5780 5777 5775 5773 5771
5845 5846 5846 5846 5847 5847 5847 5847 5847 5847 5847 5846 5846 5845 5845 5843 5842 5841 5838 5836 5834 5832 5829 5826 5822 5818 5815 5813 5810 5806 5803 5798 5796 5792 5791 5788 5784 5780 5776 5773 5771 5768 5766
5843 5843 5843 5843 5844 5844 5845 5845 5845 5844 5844 5844 5843 5842 5841 5840 5839 5837 5835 5833 5830 5827 5825 5822 5819 5815 5813 5810 5808 5803 5801 5798 5794 5790 5786 5783 5780 5778 5775 5770 5766 5764 5760
5841 5841 5841 5841 5842 5842 5842 5842 5842 5842 5842 5841 5840 5839 5838 5836 5835 5833 5831 5828 5826 5823 5821 5819 5814 5812 5810 5808 5805 5802 5797 5794 5790 5788 5784 5780 5777 5771 5769 5767 5763 5760 5756
5839 5839 5838 5838 5838 5839 5839 5839 5839 5839 5838 5837 5836 5835 5833 5832 5831 5828 5826 5824 5822 5820 5817 5813 5812 5810 5807 5804 5801 5799 5796 5792 5787 5783 5779 5775 5772 5768 5765 5761 5758 5754 5749
5837 5836 5836 5835 5835 5835 5836 5836 5836 5835 5834 5834 5832 5831 5829 5828 5826 5824 5822 5820 5817 5815 5811 5809 5808 5807 5804 5800 5797 5794 5791 5790 5785 5781 5776 5771 5768 5764 5760 5755 5750 5745 5739
5834 5834 5833 5832 5832 5832 5832 5832 5832 5831 5830 5829 5828 5826 5825 5823 5821 5820 5818 5816 5813 5809 5807 5805 5804 5803 5802 5797 5794 5789 5785 5783 5779 5775 5771 5767 5762 5756 5752 5747 5741 5736 5733
5831 5831 5830 5829 5828 5828 5828 5828 5827 5827 5826 5825 5824 5822 5820 5818 5817 5815 5814 5811 5809 5805 5803 5802 5801 5799 5797 5794 5791 5787 5782 5776 5772 5767 5762 5758 5753 5748 5742 5737 5732 5727 5722
5826 5827 5827 5826 5825 5825 5824 5824 5823 5822 5821 5821 5819 5818 5816 5814 5812 5811 5809 5806 5803 5801 5799 5798 5797 5794 5791 5788 5786 5782 5777 5773 5768 5763 5756 5750 5745 5740 5735 5729 5723 5716 5711
5822 5824 5824 5823 5822 5821 5821 5819 5819 5818 5817 5816 5815 5813 5811 5809 5807 5806 5804 5801 5799 5796 5795 5794 5792 5790 5787 5783 5779 5775 5771 5767 5762 5758 5750 5744 5738 5732 5725 5719 5713 5705 5698
5819 5820 5820 5819 5818 5817 5816 5815 5814 5813 5813 5812 5811 5808 5806 5804 5802 5801 5799 5796 5793 5792 5790 5789 5788 5785 5782 5778 5774 5770 5765 5760 5755 5750 5745 5738 5730 5722 5714 5707 5701 5693 5685
5813 5814 5815 5814 5814 5813 5813 5811 5810 5809 5808 5807 5806 5804 5802 5799 5796 5795 5794 5791 5789 5787 5786 5784 5783 5779 5776 5773 5768 5764 5759 5755 5749 5743 5736 5729 5720 5713 5704 5696 5687 5679 5669
Wind_Speed
4 3 3 2 1 8 9 8 9 10 10 10 10 10 10 9 9 8 7 7 7 7 8 9 9 10 10 11 11 11 10 11 11 12 13 13 12 12 12 12 11 12 12
4 5 3 4 9 10 9 7 8 9 8 8 6 7 7 6 6 5 6 7 7 7 7 8 9 9 9 9 9 9 9 9 9 10 12 9 8 13 14 14 14 15 15
5 4 4 9 10 10 9 7 7 8 6 5 4 4 4 3 4 5 6 7 7 8 8 8 9 10 11 11 11 11 10 11 11 10 9 17 16 16 16 17 16 16 17
4 3 8 10 10 9 7 7 7 7 6 6 5 4 3 3 4 4 5 6 7 9 9 10 11 11 12 12 12 12 12 13 13 12 14 18 20 20 20 21 19 19 19
4 7 9 9 9 7 6 7 6 6 6 6 4 3 1 3 3 3 3 5 7 9 9 10 11 12 13 13 14 15 16 15 15 15 15 16 18 19 20 22 22 23 23
2 9 10 8 7 6 5 5 4 3 4 5 3 1 1 2 2 3 4 6 8 9 9 11 12 13 14 16 17 19 19 20 14 18 21 21 22 23 24 26 26 25 26
5 8 8 7 6 4 3 2 2 3 5 4 2 2 2 2 3 4 6 8 9 9 11 12 13 15 16 18 20 21 23 24 23 20 24 26 27 29 30 32 32 31 31
6 7 8 7 5 5 4 4 5 7 8 7 4 3 3 4 4 5 7 8 10 12 13 15 17 19 21 23 25 26 27 28 29 28 29 32 33 34 33 33 32 32 33
7 8 7 6 6 6 5 5 6 8 10 10 8 6 6 6 7 8 9 11 13 15 17 19 20 21 23 25 26 28 30 30 33 33 34 34 31 29 29 29 29 29 30
9 10 9 8 8 8 8 8 8 9 12 12 9 8 9 9 10 10 12 14 15 17 18 20 22 24 26 27 30 32 32 32 31 30 29 31 31 31 32 31 32 32 32
9 12 12 11 10 10 9 11 11 11 12 14 13 11 11 11 12 12 13 15 17 18 20 22 23 25 27 29 32 34 32 30 30 28 28 29 29 30 31 32 32 32 33
12 10 12 13 13 12 11 12 13 13 13 13 12 11 12 12 13 14 15 17 18 20 21 22 24 25 28 31 31 28 28 25 29 27 27 28 29 29 29 30 30 30 30
14 13 12 12 14 14 14 14 14 13 13 12 12 12 13 13 14 15 17 18 20 22 23 24 25 28 29 29 28 28 26 26 23 29 29 29 29 29 30 30 31 31 30
14 14 14 13 13 14 15 15 14 12 11 11 12 13 14 14 15 16 18 20 21 21 22 23 27 31 28 27 26 25 27 28 27 24 26 27 27 28 29 27 27 27 27
14 14 14 15 15 14 14 15 13 11 11 11 13 14 14 15 17 19 21 22 22 23 24 25 30 27 24 23 24 25 26 25 26 24 23 25 26 25 24 25 25 26 26
15 15 14 15 16 15 14 14 12 11 10 11 13 14 16 18 20 21 22 23 23 24 25 27 28 24 21 21 21 23 22 25 24 23 21 20 22 25 28 29 28 28 30
14 13 14 15 16 15 14 14 13 12 12 12 14 16 19 21 22 23 23 23 24 25 24 29 24 21 18 17 18 21 20 19 19 22 25 26 26 25 23 28 31 32 34
13 14 15 16 17 16 14 14 15 13 13 14 16 18 21 22 23 24 24 25 26 25 26 26 21 14 13 14 17 18 21 21 23 23 25 27 26 31 32 29 32 33 35
13 13 16 18 18 17 15 16 16 15 16 17 18 20 22 23 24 24 25 27 26 27 28 21 13 12 16 16 18 19 18 22 26 28 29 30 32 33 35 36 37 39 38
11 12 15 17 16 16 17 18 18 18 19 20 21 22 23 24 24 25 26 25 30 24 20 15 10 13 18 21 21 24 24 22 24 27 29 32 33 36 38 40 41 42 45
17 17 14 16 16 18 19 21 22 22 22 22 23 23 23 24 25 26 24 28 25 24 19 12 12 16 18 21 22 26 29 29 29 32 34 36 39 41 42 43 44 45 46
13 11 11 11 12 16 20 22 24 24 24 24 24 23 23 24 26 24 24 28 26 23 19 14 16 19 19 20 22 26 28 32 34 38 40 42 43 45 46 47 48 49 49
16 13 16 16 14 17 20 22 24 24 23 23 23 23 23 25 25 25 26 28 25 21 17 15 16 20 22 23 24 27 28 30 34 38 41 43 45 46 47 48 49 51 53
19 15 19 21 17 18 22 23 23 22 20 21 22 23 25 26 24 26 26 28 24 21 14 14 20 21 24 26 28 30 31 33 35 38 41 44 45 46 49 50 52 55 55
18 19 21 26 18 19 18 21 18 18 17 19 22 23 25 26 25 28 26 28 24 19 15 18 22 24 25 26 29 32 33 36 38 41 43 45 46 49 52 54 56 57 58
24 25 25 25 25 17 19 22 22 20 20 23 26 24 23 25 32 28 29 25 23 18 17 21 23 25 27 28 31 34 36 39 41 44 46 47 48 51 54 57 59 61 62
Wind_Direction
5 339 301 256 174 125 123 118 102 90 83 79 77 79 76 74 70 66 62 60 53 44 36 32 26 23 21 17 14 11 6 4 355 352 349 338 336 336 336 338 334 324 327
330 313 275 153 131 136 130 119 100 81 76 73 73 75 70 61 63 54 44 39 34 32 30 30 26 24 20 13 8 4 9 358 350 354 342 296 353 335 333 331 327 321 318
318 312 150 133 140 145 137 113 95 85 71 64 59 65 76 62 43 33 34 30 28 29 28 22 12 3 354 349 344 336 340 334 336 339 321 325 340 320 319 321 320 320 317
293 198 153 153 153 153 132 113 93 79 62 33 19 14 40 40 37 39 44 33 26 19 9 354 347 345 344 342 337 329 326 319 319 315 302 300 308 309 311 307 308 306 304
280 183 176 160 161 154 144 118 95 75 41 23 10 346 345 10 9 18 9 5 0 354 351 348 344 343 342 341 338 334 332 333 336 316 312 304 301 303 300 300 301 301 298
174 175 175 174 179 164 159 130 107 34 13 13 10 342 289 271 295 310 313 329 344 347 346 344 343 342 340 337 334 329 327 326 333 315 310 307 307 307 307 305 302 295 288
165 181 188 190 194 198 196 196 231 294 317 338 336 312 290 320 318 320 336 338 335 336 338 338 336 335 332 331 328 324 324 323 319 314 308 306 302 300 299 298 297 294 288
186 201 213 207 203 214 234 238 258 284 302 313 309 305 308 307 311 320 327 331 330 333 333 331 329 329 328 326 324 323 321 319 315 313 310 307 305 302 299 296 293 292 289
226 229 238 245 239 236 242 248 262 271 290 308 312 310 308 311 314 315 318 323 324 326 326 326 326 326 323 320 318 316 314 311 310 310 311 309 307 305 304 300 297 296 294
255 245 248 249 257 253 262 264 266 276 292 302 306 305 310 313 311 315 318 320 323 324 323 324 324 323 320 321 320 320 318 316 315 313 311 308 306 306 305 305 303 300 297
275 259 255 257 256 264 271 278 281 285 294 302 304 304 307 307 309 310 314 320 320 321 323 323 320 318 319 321 321 319 319 318 315 314 312 311 311 310 309 309 306 305 301
276 278 270 264 262 264 271 278 285 290 295 302 305 305 305 306 309 313 320 320 318 318 320 320 319 321 321 319 318 320 321 322 319 318 320 322 322 321 321 319 317 315 311
280 278 282 276 269 269 274 278 283 290 297 303 305 307 308 307 312 316 317 317 317 319 320 318 321 323 323 322 324 325 325 324 336 330 333 331 329 328 328 328 328 327 324
284 281 279 285 281 274 276 279 279 285 294 299 305 309 308 308 311 313 313 313 315 315 313 318 327 324 324 325 326 330 331 333 337 341 340 340 341 339 338 335 335 333 327
281 279 279 283 286 279 278 278 279 282 290 299 303 304 304 305 306 308 311 314 315 314 316 323 324 323 325 327 332 335 338 342 345 353 348 342 340 338 337 334 335 331 326
276 278 278 280 284 284 281 278 273 275 282 292 297 298 299 301 305 308 311 314 313 316 319 321 322 323 329 338 338 342 349 347 346 345 350 343 339 337 337 333 333 326 319
286 283 280 281 284 281 279 278 275 276 281 286 290 295 296 300 305 307 312 311 313 315 315 322 319 324 335 343 351 346 352 345 342 344 341 345 342 336 332 323 321 318 312
283 282 281 284 289 281 276 277 277 280 281 283 288 292 298 302 305 309 309 310 314 313 315 318 315 328 334 349 354 351 344 348 347 348 342 341 339 330 330 325 317 313 309
281 293 291 289 289 280 276 277 279 280 281 286 291 296 301 303 307 307 309 313 316 313 312 308 313 320 326 338 344 342 347 343 341 343 339 336 334 329 328 325 322 318 315
284 289 283 287 286 280 279 280 281 283 285 289 293 297 302 305 305 306 310 314 316 313 309 305 306 322 327 329 335 336 339 339 333 331 330 328 327 327 327 325 323 321 316
291 276 291 288 288 285 282 280 282 284 287 290 293 298 302 301 302 307 309 317 319 317 312 292 306 320 324 323 330 330 333 336 333 333 329 328 330 331 330 326 323 320 318
283 283 294 306 307 297 289 284 284 285 286 290 295 299 299 301 304 308 311 314 313 312 310 294 311 316 325 325 324 325 326 329 333 332 334 333 331 330 329 327 324 320 317
287 299 303 301 309 312 304 294 286 285 288 294 298 297 299 302 305 308 309 314 312 310 308 299 305 314 321 324 326 328 327 331 332 332 330 330 329 327 326 325 323 319 319
283 295 305 309 289 301 306 299 291 288 290 297 298 300 301 301 299 309 304 311 311 308 300 297 303 314 317 320 324 327 330 331 331 329 329 327 325 326 327 326 323 322 321
284 291 305 302 282 284 296 304 294 290 292 294 300 304 304 299 296 300 302 307 307 304 292 295 305 311 315 316 323 328 329 327 327 327 325 325 326 328 328 327 326 324 322
292 297 295 291 284 297 298 292 288 288 289 296 300 300 294 295 295 293 301 302 302 295 285 297 307 311 315 319 324 326 327 326 324 323 323 325 327 329 328 328 326 326 325